FW3067 Weather Reports


time (UTC)temp
C
wind
direction
speed
KPH
gust
KPH
rain 1hr
cm
rain 24hr
cm
rain mn
cm
humidity
%
barometer
mb
20260906233056 13 339 9.7 19.3 0.00 0.23 0.15 97 1001.2
20260906231558 13 342 11.3 19.3 0.00 0.23 0.15 97 1001.1
20260906230106 13 4 9.7 16.1 0.00 0.23 0.15 96 1001.2
20260906224557 13 354 9.7 14.5 0.00 0.28 0.15 97 1001.1
20260906223155 13 359 8.0 14.5 0.00 0.28 0.15 97 1001.1
20260906221552 13 346 11.3 22.5 0.00 0.28 0.15 97 1001.1
20260906220052 13 348 8.0 14.5 0.00 0.28 0.15 96 1001.1
20260906214550 13 13 6.4 14.5 0.00 0.30 0.15 96 1001.1
20260906213056 14 26 12.9 22.5 0.00 0.30 0.15 95 1001.0
20260906211550 14 355 11.3 19.3 0.00 0.30 0.15 96 1001.1
20260906210049 14 63 14.5 25.7 0.00 0.30 0.15 95 1001.2
20260906204555 14 26 14.5 27.4 0.00 0.33 0.15 96 1001.0
20260906203048 14 21 19.3 27.4 0.00 0.33 0.15 96 1000.9
20260906201613 13 28 17.7 27.4 0.00 0.33 0.15 97 1000.9
20260906200046 13 19 17.7 35.4 0.00 0.33 0.15 97 1000.8
20260906194555 13 43 24.1 38.6 0.03 0.33 0.15 97 1000.8
20260906193046 13 33 29.0 40.2 0.03 0.33 0.15 98 1000.9
20260906191544 13 22 25.7 38.6 0.03 0.33 0.15 98 1000.9
20260906190044 13 49 30.6 40.2 0.03 0.33 0.15 98 1000.8
20260906184543 13 26 29.0 45.1 0.00 0.30 0.13 97 1000.9
20260906183050 13 30 22.5 41.8 0.00 0.30 0.13 97 1000.9
20260906181548 13 78 29.0 41.8 0.00 0.30 0.13 97 1001.1
20260906180042 13 34 27.4 41.8 0.03 0.30 0.13 97 1001.1
20260906174544 13 22 27.4 43.5 0.03 0.30 0.13 96 1001.2
20260906173039 13 22 30.6 41.8 0.03 0.30 0.13 97 1001.4
20260906171541 13 29 30.6 43.5 0.03 0.30 0.13 97 1001.5
20260906170038 13 36 30.6 46.7 0.03 0.28 0.10 97 1001.6
20260906164537 13 40 27.4 43.5 0.03 0.30 0.10 97 1001.5
20260906163047 13 52 20.9 45.1 0.03 0.30 0.10 98 1001.5
20260906161545 13 44 33.8 45.1 0.03 0.30 0.10 98 1001.5
20260906160035 13 30 29.0 43.5 0.03 0.28 0.08 97 1001.7
20260906154537 13 32 24.1 43.5 0.03 0.30 0.08 99 1001.6
20260906153033 13 47 24.1 38.6 0.03 0.30 0.08 98 1001.6
20260906151535 13 50 25.7 48.3 0.03 0.30 0.08 98 1001.7
20260906150033 15 36 25.7 43.5 0.00 0.28 0.05 94 1001.7
20260906144531 14 54 27.4 48.3 0.00 0.30 0.05 94 1001.6
20260906143030 14 49 29.0 46.7 0.00 0.30 0.05 95 1001.8
20260906141530 15 44 24.1 45.1 0.00 0.30 0.05 95 1001.7
20260906140036 13 48 25.7 49.9 0.00 0.30 0.05 97 1001.9
20260906134527 14 21 20.9 41.8 0.00 0.30 0.05 95 1001.8
20260906133036 14 44 35.4 53.1 0.00 0.30 0.05 93 1001.9
20260906131524 13 29 29.0 48.3 0.03 0.30 0.05 96 1001.7
20260906130021 13 37 30.6 54.7 0.03 0.30 0.05 97 1001.7
20260906124521 13 45 38.6 62.8 0.03 0.33 0.05 98 1001.6
20260906123033 12 40 29.0 48.3 0.00 0.30 0.05 99 1001.5
20260906121516 12 48 30.6 51.5 0.03 0.30 0.05 99 1001.5
20260906120015 13 43 30.6 53.1 0.03 0.30 0.05 97 1001.4
20260906114520 12 9 35.4 56.3 0.03 0.43 0.05 97 1001.4
20260906113013 13 31 30.6 49.9 0.03 0.43 0.05 97 1001.6
20260906111511 13 22 30.6 45.1 0.00 0.41 0.03 97 1001.5
20260906110009 13 57 30.6 51.5 0.00 0.71 0.03 98 1001.4
20260906104506 13 38 37.0 56.3 0.00 0.71 0.03 99 1001.3
20260906103006 13 28 35.4 59.5 0.00 0.71 0.03 98 1001.1
20260906101505 13 46 41.8 59.5 0.00 0.71 0.03 98 1001.1
20260906100003 13 82 38.6 62.8 0.00 1.17 0.03 98 1001.0
20260906094502 13 70 35.4 64.4 0.00 1.17 0.03 98 1000.9
20260906093003 13 76 38.6 57.9 0.00 1.17 0.03 99 1000.9
20260906091603 13 42 29.0 56.3 0.00 1.17 0.03 99 1000.8
20260906090113 13 69 33.8 62.8 0.00 1.17 0.03 99 1000.7
20260906084608 13 57 40.2 61.2 0.00 1.83 0.03 99 1000.6
20260906083056 13 53 35.4 53.1 0.00 1.83 0.03 100 1000.6
20260906081557 13 78 35.4 53.1 0.00 1.83 0.03 100 1000.6
20260906080056 13 40 35.4 59.5 0.00 1.83 0.03 100 1000.5
20260906074603 13 50 32.2 61.2 0.00 2.87 0.03 100 1000.6
20260906073058 13 60 37.0 57.9 0.00 2.87 0.03 100 1000.5
20260906071552 13 48 35.4 53.1 0.00 2.87 0.03 100 1000.3
20260906070109 13 50 33.8 51.5 0.00 2.87 0.03 100 1000.4
20260906064551 13 43 35.4 61.2 0.00 5.18 0.03 100 1000.3
20260906063049 13 27 38.6 59.5 0.00 5.18 0.03 100 1000.2
20260906061601 13 53 37.0 61.2 0.00 5.18 0.03 100 1000.3
20260906060048 13 40 35.4 59.5 0.00 5.18 0.03 100 1000.5
20260906054546 13 48 35.4 61.2 0.00 7.26 0.03 100 1000.4
20260906053050 13 37 35.4 54.7 0.00 7.26 0.03 100 1000.6
20260906051544 13 34 45.1 62.8 0.00 7.26 0.03 100 1000.5
20260906050104 13 53 45.1 62.8 0.03 7.26 0.03 100 1000.5
20260906044541 13 31 37.0 59.5 0.03 8.38 0.03 100 1000.7
20260906043048 13 64 38.6 64.4 0.03 8.38 0.03 100 1000.7
20260906041538 13 45 40.2 61.2 0.03 8.38 0.03 100 1000.5
20260906040043 13 29 30.6 57.9 0.00 8.36 0.00 100 1000.8
20260906034535 13 61 37.0 66.0 0.00 9.04 0.00 100 1001.0
20260906033033 13 72 38.6 64.4 0.00 9.04 0.00 100 1001.1
20260906031531 13 44 37.0 59.5 0.03 9.04 0.00 100 1001.3
20260906030030 13 56 41.8 64.4 0.03 9.04 0.00 100 1001.4
20260906024530 13 53 41.8 64.4 0.03 9.70 9.04 100 1001.2
20260906023029 13 60 41.8 64.4 0.05 9.70 9.04 100 1001.2
20260906021528 13 46 41.8 67.6 0.03 9.68 9.02 100 1001.2
20260906020027 13 69 40.2 67.6 0.03 9.68 9.02 100 1001.5
20260906014540 13 68 43.5 66.0 0.05 10.06 9.02 100 1001.5
20260906013025 13 69 43.5 66.0 0.05 10.03 8.99 100 1001.7
20260906011526 13 73 40.2 62.8 0.05 10.03 8.99 100 1001.7
20260906010024 13 57 43.5 64.4 0.05 10.03 8.99 100 1001.5
20260906004522 13 19 40.2 59.5 0.03 10.82 8.99 100 1001.5
20260906003022 13 61 41.8 66.0 0.03 10.79 8.97 100 1001.7
20260906001521 13 20 32.2 56.3 0.03 10.79 8.97 100 1001.8
20260906000020 13 61 37.0 70.8 0.03 10.79 8.97 100 1001.8
20260905234621 13 56 46.7 72.4 0.03 10.87 8.97 100 1001.6